User: anonymous   Login
Location: Unspecified
(0.0000°N, 0.0000°E)
Time: 21:23:08
(UTC+00:00)
Language:

IRVINE01 - Orbit

View from above orbital plane
View from above orbital plane
View from above satellite
View from above satellite

Ground track
Ground track

The orbit data is extracted from the following two-line orbital elements,

1 43693U 18088D   19047.45073345  .00002408  00000-0  10713-3 0  9991
2 43693  85.0344  38.7983 0016344 284.4305  75.5122 15.20821941 14788
Epoch (UTC): 16 February 2019 10:49:03
Eccentricity: 0.0016344
inclination: 85.0344°
perigee height: 492 km
apogee height: 514 km
right ascension of ascending node: 38.7983°
argument of perigee: 284.4305°
revolutions per day: 15.20821941
mean anomaly at epoch: 75.5122°
orbit number at epoch: 1478

The dashed part of the orbit path shows where the satellite is in the earth's shadow,  

DLR